When you browse on this site, cookies collect data to enhance your experience and personalize the content and advertising you see.
Visit our Privacy Policy to learn more. By continuing to use the site, you agree to this use of cookies and data.
  • en Suisse
  • Liste des pays
  • À 7 jours
  • Température de l'eau
  • Carte météo
  • Widgets météo
  • user-avatar
    Se connecter

    Météo par heure à Tirya

    Ce jour, 10 Avril, Vendredi

    Heure Température Précipitation Vent Pression Humidité
    00:00 +7°C° 0.1 mm 4 m/s 740 mmHg 83%
    01:00 +6°C° 0.1 mm 5 m/s 740 mmHg 82%
    02:00 +5°C° 0 mm 4 m/s 741 mmHg 79%
    03:00 +4°C° 0 mm 4 m/s 741 mmHg 81%
    04:00 +3°C° 0 mm 4 m/s 741 mmHg 83%
    05:00 +1°C° 0 mm 4 m/s 742 mmHg 85%
    06:00 +3°C° 0 mm 4 m/s 742 mmHg 78%
    07:00 +3°C° 0 mm 5 m/s 742 mmHg 71%
    08:00 +3°C° 0 mm 5 m/s 743 mmHg 63%
    09:00 +5°C° 0 mm 5 m/s 743 mmHg 59%
    10:00 +6°C° 0 mm 5 m/s 744 mmHg 54%
    11:00 +5°C° 0 mm 6 m/s 744 mmHg 50%
    12:00 +7°C° 0 mm 5 m/s 744 mmHg 49%
    13:00 +7°C° 0 mm 5 m/s 744 mmHg 47%
    14:00 +8°C° 0 mm 5 m/s 744 mmHg 46%
    15:00 +7°C° 0 mm 5 m/s 744 mmHg 47%
    16:00 +7°C° 0 mm 5 m/s 744 mmHg 47%
    17:00 +7°C° 0 mm 5 m/s 744 mmHg 47%
    18:00 +6°C° 0 mm 4 m/s 744 mmHg 53%
    19:00 +5°C° 0 mm 3 m/s 745 mmHg 58%
    20:00 +5°C° 0 mm 2 m/s 745 mmHg 63%
    21:00 +4°C° 0 mm 2 m/s 745 mmHg 65%
    22:00 +4°C° 0 mm 2 m/s 745 mmHg 68%
    23:00 +3°C° 0 mm 2 m/s 745 mmHg 70%

    Demain, 11 Avril, Samedi

    Heure Température Précipitation Vent Pression Humidité
    00:00 +3°C° 0 mm 2 m/s 745 mmHg 72%
    01:00 +2°C° 0 mm 3 m/s 745 mmHg 73%
    02:00 +2°C° 0 mm 3 m/s 745 mmHg 75%
    03:00 +1°C° 0 mm 3 m/s 745 mmHg 73%
    04:00 +1°C° 0 mm 3 m/s 745 mmHg 72%
    05:00 +1°C° 0 mm 3 m/s 745 mmHg 70%
    06:00 0°C° 0 mm 4 m/s 745 mmHg 64%
    07:00 +1°C° 0 mm 4 m/s 746 mmHg 58%
    08:00 +1°C° 0 mm 5 m/s 746 mmHg 52%
    09:00 +2°C° 0 mm 5 m/s 746 mmHg 51%
    10:00 +2°C° 0 mm 5 m/s 747 mmHg 49%
    11:00 +3°C° 0 mm 5 m/s 747 mmHg 47%
    12:00 +3°C° 0.2 mm 5 m/s 747 mmHg 47%
    13:00 +5°C° 0.2 mm 5 m/s 747 mmHg 46%
    14:00 +5°C° 0.2 mm 5 m/s 747 mmHg 46%
    15:00 +4°C° 0.2 mm 6 m/s 748 mmHg 45%
    16:00 +4°C° 0.2 mm 6 m/s 748 mmHg 44%
    17:00 +3°C° 0.2 mm 6 m/s 748 mmHg 44%
    18:00 +2°C° 0 mm 5 m/s 749 mmHg 48%
    19:00 +1°C° 0 mm 4 m/s 749 mmHg 53%
    20:00 +1°C° 0 mm 3 m/s 749 mmHg 57%
    21:00 +1°C° 0 mm 3 m/s 750 mmHg 60%
    22:00 0°C° 0 mm 3 m/s 750 mmHg 62%
    23:00 +1°C° 0 mm 2 m/s 750 mmHg 64%

    Après-demain, 12 Avril, Dimanche

    Heure Température Précipitation Vent Pression Humidité
    00:00 -1°C° 0 mm 2 m/s 750 mmHg 65%
    01:00 -1°C° 0 mm 3 m/s 750 mmHg 66%
    02:00 -1°C° 0 mm 3 m/s 750 mmHg 68%
    03:00 -1°C° 0 mm 2 m/s 750 mmHg 71%
    04:00 -1°C° 0 mm 2 m/s 750 mmHg 73%
    05:00 -2°C° 0 mm 2 m/s 750 mmHg 76%
    06:00 +1°C° 0 mm 2 m/s 750 mmHg 72%
    07:00 +2°C° 0 mm 2 m/s 750 mmHg 67%
    08:00 +3°C° 0 mm 2 m/s 750 mmHg 63%
    09:00 +3°C° 0 mm 3 m/s 750 mmHg 59%
    10:00 +4°C° 0 mm 3 m/s 750 mmHg 54%
    11:00 +5°C° 0 mm 3 m/s 750 mmHg 50%
    12:00 +7°C° 0 mm 3 m/s 749 mmHg 48%
    13:00 +6°C° 0 mm 4 m/s 749 mmHg 46%
    14:00 +7°C° 0 mm 4 m/s 748 mmHg 44%
    15:00 +7°C° 0 mm 4 m/s 748 mmHg 46%
    16:00 +7°C° 0 mm 4 m/s 747 mmHg 48%
    17:00 +6°C° 0 mm 4 m/s 747 mmHg 50%
    18:00 +5°C° 0 mm 3 m/s 747 mmHg 54%
    19:00 +4°C° 0 mm 3 m/s 746 mmHg 59%
    20:00 +3°C° 0 mm 3 m/s 746 mmHg 63%
    21:00 +3°C° 0 mm 3 m/s 745 mmHg 64%
    22:00 +3°C° 0 mm 3 m/s 745 mmHg 64%
    23:00 +3°C° 0 mm 3 m/s 744 mmHg 65%

    13 Avril, Lundi

    Heure Température Précipitation Vent Pression Humidité
    00:00 +3°C° 0 mm 4 m/s 744 mmHg 62%
    01:00 +2°C° 0 mm 5 m/s 743 mmHg 59%
    02:00 +3°C° 0 mm 6 m/s 743 mmHg 56%
    03:00 +3°C° 0 mm 6 m/s 742 mmHg 57%
    04:00 +3°C° 0 mm 6 m/s 742 mmHg 59%
    05:00 +3°C° 0 mm 6 m/s 741 mmHg 60%
    06:00 +3°C° 0 mm 6 m/s 741 mmHg 60%
    07:00 +4°C° 0 mm 6 m/s 740 mmHg 60%
    08:00 +5°C° 0 mm 6 m/s 740 mmHg 59%
    09:00 +8°C° 0 mm 7 m/s 739 mmHg 56%
    10:00 +9°C° 0 mm 7 m/s 738 mmHg 53%
    11:00 +11°C° 0 mm 7 m/s 738 mmHg 49%
    12:00 +12°C° 0 mm 8 m/s 737 mmHg 48%
    13:00 +13°C° 0 mm 8 m/s 736 mmHg 47%
    14:00 +15°C° 0 mm 8 m/s 735 mmHg 46%
    15:00 +13°C° 0 mm 8 m/s 734 mmHg 50%
    16:00 +14°C° 0 mm 7 m/s 733 mmHg 53%
    17:00 +14°C° 0 mm 7 m/s 732 mmHg 56%
    18:00 +12°C° 0.2 mm 8 m/s 731 mmHg 60%
    19:00 +12°C° 0.2 mm 8 m/s 731 mmHg 64%
    20:00 +11°C° 0.2 mm 8 m/s 731 mmHg 69%
    21:00 +9°C° 1.1 mm 7 m/s 731 mmHg 76%
    22:00 +7°C° 1.1 mm 6 m/s 731 mmHg 83%
    23:00 +5°C° 1.1 mm 5 m/s 730 mmHg 90%

    14 Avril, Mardi

    Heure Température Précipitation Vent Pression Humidité
    00:00 +3°C° 1.5 mm 5 m/s 731 mmHg 92%
    01:00 +1°C° 1.5 mm 5 m/s 731 mmHg 93%
    02:00 -1°C° 1.5 mm 6 m/s 731 mmHg 95%
    03:00 0°C° 0.2 mm 5 m/s 732 mmHg 90%
    04:00 -1°C° 0.2 mm 4 m/s 732 mmHg 85%
    05:00 -1°C° 0.2 mm 4 m/s 733 mmHg 80%
    06:00 -1°C° 0 mm 4 m/s 733 mmHg 74%
    07:00 -1°C° 0 mm 4 m/s 734 mmHg 69%
    08:00 0°C° 0 mm 4 m/s 734 mmHg 63%
    09:00 0°C° 0 mm 4 m/s 734 mmHg 59%
    10:00 +1°C° 0 mm 4 m/s 735 mmHg 55%
    11:00 +3°C° 0 mm 4 m/s 735 mmHg 51%
    12:00 +4°C° 0 mm 4 m/s 735 mmHg 48%
    13:00 +4°C° 0 mm 4 m/s 735 mmHg 46%
    14:00 +5°C° 0 mm 4 m/s 735 mmHg 43%
    15:00 +5°C° 0.1 mm 4 m/s 735 mmHg 45%
    16:00 +5°C° 0.1 mm 4 m/s 735 mmHg 47%
    17:00 +4°C° 0.1 mm 4 m/s 735 mmHg 49%
    18:00 +3°C° 0.1 mm 4 m/s 735 mmHg 56%
    19:00 +2°C° 0.1 mm 3 m/s 735 mmHg 62%
    20:00 +2°C° 0.1 mm 2 m/s 735 mmHg 69%
    21:00 +2°C° 0 mm 2 m/s 735 mmHg 72%
    22:00 +2°C° 0 mm 2 m/s 735 mmHg 75%
    23:00 +1°C° 0 mm 2 m/s 735 mmHg 78%

    15 Avril, Mercredi

    Heure Température Précipitation Vent Pression Humidité
    00:00 +1°C° 0 mm 2 m/s 735 mmHg 80%
    01:00 -1°C° 0 mm 2 m/s 735 mmHg 82%
    02:00 +1°C° 0 mm 1 m/s 735 mmHg 85%
    03:00 0°C° 0 mm 1 m/s 735 mmHg 86%
    04:00 0°C° 0 mm 1 m/s 735 mmHg 86%
    05:00 0°C° 0 mm 1 m/s 735 mmHg 87%
    06:00 +1°C° 0 mm 1 m/s 736 mmHg 81%
    07:00 +2°C° 0 mm 2 m/s 736 mmHg 76%
    08:00 +3°C° 0 mm 2 m/s 736 mmHg 70%
    09:00 +4°C° 0.4 mm 2 m/s 736 mmHg 66%
    10:00 +4°C° 0.4 mm 3 m/s 736 mmHg 62%
    11:00 +5°C° 0.4 mm 3 m/s 736 mmHg 57%
    12:00 +5°C° 0.4 mm 3 m/s 736 mmHg 55%
    13:00 +5°C° 0.4 mm 3 m/s 736 mmHg 53%
    14:00 +6°C° 0.4 mm 4 m/s 736 mmHg 50%
    15:00 +7°C° 0.1 mm 3 m/s 736 mmHg 51%
    16:00 +5°C° 0.1 mm 3 m/s 736 mmHg 52%
    17:00 +5°C° 0.1 mm 3 m/s 736 mmHg 53%
    18:00 +4°C° 0 mm 3 m/s 736 mmHg 60%
    19:00 +4°C° 0 mm 2 m/s 736 mmHg 67%
    20:00 +3°C° 0 mm 2 m/s 736 mmHg 74%
    21:00 +2°C° 0 mm 2 m/s 737 mmHg 76%
    22:00 +2°C° 0 mm 2 m/s 737 mmHg 79%
    23:00 +1°C° 0 mm 2 m/s 737 mmHg 81%
    Voir plus